Weather History for Stevens Point, WI

Change the Weather History Date:

Saturday, February 15, 2014

  Actual Average Record
Temperature  
Mean Temperature 1 °F -  
Max Temperature 18 °F 29 °F 50 °F (1967)
Min Temperature -16 °F 10 °F -18 °F (1963)
Degree Days  
Heating Degree Days 64    
Moisture  
Dew Point -3 °F    
Average Humidity 75    
Maximum Humidity 89    
Minimum Humidity 52    
Precipitation  
Precipitation 0.00 in - - ()
Sea Level Pressure  
Sea Level Pressure 29.95 in    
Wind  
Wind Speed 2 mph (SE)    
Max Wind Speed 10 mph    
Max Gust Speed -    
Visibility 8 miles    
Events Snow    
Averages and records for this station are not official NWS values.
T = Trace of Precipitation, MM = Missing Value Source: NWS Daily Summary

Daily Weather History Graph

Daily Weather History Graph

Search for Another Location

Airport:

Trip Planner

Search our weather history database for the weather conditions in past years. The results will help you decide how hot, cold, wet, or windy it might be!

Date:

Astronomy

Feb. 15, 2014 Rise Set
Actual Time 6:58 AM CST 5:26 PM CST
Civil Twilight 6:28 AM CST 5:56 PM CST
Nautical Twilight 5:54 AM CST 6:31 PM CST
Astronomical Twilight 5:20 AM CST 7:04 PM CST
Moon 6:31 PM CST (2/15) 6:53 AM CST (2/15)
Length of Visible Light 11h 28m
Length of Day
10h 28m
Waxing Gibbous, 99% of the Moon is Illuminated
Feb 15
Waxing Gibbous
Feb 22
Last Quarter
Mar 1
New
Mar 8
First Quarter
Mar 16
Full

Hourly Weather History & Observations

Time (CST) Temp. Windchill Dew Point Humidity Pressure Visibility Wind Dir Wind Speed Gust Speed Precip Events Conditions
12:15 AM -4.4 °F - -7.2 °F 87% 29.97 in 10.0 mi Calm Calm - N/A   Clear
12:30 AM -5.1 °F - -8.1 °F 87% 29.97 in 10.0 mi Calm Calm - N/A   Clear
12:55 AM -7.4 °F - -11.2 °F 84% 29.97 in 10.0 mi Calm Calm - N/A   Clear
1:15 AM -9.4 °F - -13.0 °F 84% 29.96 in 10.0 mi Calm Calm - N/A   Clear
1:35 AM -7.6 °F - -11.0 °F 85% 29.97 in 10.0 mi Calm Calm - N/A   Clear
1:55 AM -9.2 °F - -13.2 °F 83% 29.98 in 10.0 mi Calm Calm - N/A   Clear
2:15 AM -10.3 °F - -14.3 °F 83% 29.98 in 10.0 mi Calm Calm - N/A   Clear
2:35 AM -9.0 °F - -13.0 °F 83% 29.99 in 10.0 mi Calm Calm - N/A   Clear
2:55 AM -11.2 °F - -15.3 °F 82% 29.99 in 10.0 mi Calm Calm - N/A   Clear
3:15 AM -13.4 °F - -17.9 °F 80% 29.98 in 10.0 mi Calm Calm - N/A   Clear
3:35 AM -12.3 °F - -16.6 °F 81% 29.98 in 10.0 mi Calm Calm - N/A   Clear
3:55 AM -12.3 °F - -16.6 °F 81% 29.99 in 10.0 mi Calm Calm - N/A   Clear
4:15 AM -13.9 °F - -18.4 °F 80% 29.99 in 10.0 mi Calm Calm - N/A   Clear
4:35 AM -14.4 °F - -19.1 °F 79% 29.99 in 10.0 mi Calm Calm - N/A   Clear
4:55 AM -15.2 °F - -19.7 °F 80% 29.99 in 10.0 mi Calm Calm - N/A   Clear
5:10 AM -14.6 °F - -19.3 °F 79% 29.98 in 10.0 mi Calm Calm - N/A   Clear
5:35 AM -15.7 °F - -20.6 °F 79% 29.97 in 10.0 mi Calm Calm - N/A   Clear
5:55 AM -15.9 °F - -20.7 °F 79% 29.97 in 10.0 mi Calm Calm - N/A   Clear
6:15 AM -14.4 °F - -19.1 °F 79% 29.98 in 10.0 mi Calm Calm - N/A   Clear
6:35 AM -15.3 °F - -20.0 °F 79% 29.97 in 10.0 mi Calm Calm - N/A   Clear
6:55 AM -16.2 °F - -21.1 °F 79% 29.99 in 10.0 mi Calm Calm - N/A   Clear
7:15 AM -15.0 °F - -19.7 °F 79% 30.00 in 10.0 mi Calm Calm - N/A   Clear
7:35 AM -15.7 °F - -20.7 °F 78% 30.01 in 10.0 mi Calm Calm - N/A   Mostly Cloudy
7:55 AM -13.4 °F - -18.0 °F 80% 30.01 in 10.0 mi Calm Calm - N/A   Overcast
8:15 AM -9.2 °F - -13.5 °F 81% 30.00 in 10.0 mi Calm Calm - N/A   Overcast
8:35 AM -7.4 °F - -11.6 °F 82% 30.00 in 10.0 mi Calm Calm - N/A   Overcast
8:55 AM -4.5 °F - -8.3 °F 84% 29.99 in 10.0 mi Calm Calm - N/A   Scattered Clouds
9:15 AM -1.5 °F - -5.3 °F 84% 29.99 in 10.0 mi Calm Calm - N/A   Clear
9:35 AM 1.0 °F -8.7 °F -2.6 °F 85% 29.98 in 10.0 mi SE 4.6 mph - N/A   Clear
9:50 AM 3.7 °F -5.5 °F -0.4 °F 83% 29.98 in 10.0 mi SE 4.6 mph - N/A   Clear
10:15 AM 5.9 °F -4.5 °F -2.2 °F 69% 29.98 in 10.0 mi SSE 5.8 mph - N/A   Clear
10:35 AM 7.5 °F -2.6 °F -2.2 °F 65% 29.98 in 10.0 mi SE 5.8 mph - N/A   Clear
10:55 AM 9.0 °F -0.9 °F -1.5 °F 63% 29.97 in 10.0 mi South 5.8 mph - N/A   Clear
11:15 AM 10.2 °F -1.7 °F -1.3 °F 60% 29.96 in 10.0 mi SE 8.1 mph - N/A   Clear
11:35 AM 11.8 °F 1.3 °F -0.6 °F 58% 29.96 in 10.0 mi SE 6.9 mph - N/A   Clear
11:55 AM 12.6 °F 2.2 °F 0.1 °F 58% 29.95 in 10.0 mi South 6.9 mph - N/A   Clear
12:15 PM 13.8 °F 1.0 °F 1.2 °F 57% 29.94 in 10.0 mi South 10.4 mph - N/A   Clear
12:35 PM 13.8 °F 2.7 °F 1.4 °F 58% 29.93 in 10.0 mi South 8.1 mph - N/A   Clear
12:55 PM 14.7 °F 3.8 °F 2.3 °F 58% 29.92 in 10.0 mi SSW 8.1 mph - N/A   Scattered Clouds
1:15 PM 14.5 °F 2.7 °F 1.4 °F 56% 29.92 in 10.0 mi South 9.2 mph - N/A   Scattered Clouds
1:35 PM 14.9 °F 2.3 °F 1.4 °F 55% 29.91 in 10.0 mi South 10.4 mph - N/A   Mostly Cloudy
1:55 PM 15.3 °F 4.4 °F 2.1 °F 56% 29.90 in 10.0 mi South 8.1 mph - N/A   Overcast
2:15 PM 16.2 °F 4.7 °F 2.3 °F 54% 29.89 in 10.0 mi SSE 9.2 mph - N/A   Overcast
2:30 PM 16.7 °F 6.2 °F 2.3 °F 53% 29.89 in 10.0 mi SE 8.1 mph - N/A   Overcast
2:55 PM 16.7 °F 6.2 °F 2.1 °F 53% 29.89 in 10.0 mi SSE 8.1 mph - N/A   Mostly Cloudy
3:15 PM 17.1 °F 7.6 °F 3.0 °F 54% 29.90 in 10.0 mi SSE 6.9 mph - N/A   Overcast
3:35 PM 17.4 °F 8.0 °F 3.0 °F 53% 29.89 in 10.0 mi SSE 6.9 mph - N/A   Overcast
3:55 PM 17.6 °F 7.3 °F 3.2 °F 53% 29.89 in 10.0 mi SSE 8.1 mph - N/A   Overcast
4:15 PM 18.0 °F 8.7 °F 3.2 °F 53% 29.88 in 10.0 mi SSE 6.9 mph - N/A   Overcast
4:35 PM 18.1 °F 7.9 °F 3.4 °F 53% 29.89 in 10.0 mi SSE 8.1 mph - N/A   Overcast
4:55 PM 18.0 °F 8.7 °F 3.0 °F 52% 29.90 in 10.0 mi SSE 6.9 mph - N/A   Overcast
5:15 PM 17.8 °F 9.6 °F 3.4 °F 53% 29.89 in 10.0 mi SSE 5.8 mph - N/A   Overcast
5:35 PM 17.6 °F 9.3 °F 3.7 °F 55% 29.89 in 10.0 mi SSE 5.8 mph - N/A   Overcast
5:55 PM 16.9 °F 7.4 °F 5.7 °F 62% 29.90 in 3.0 mi SSE 6.9 mph - N/A Snow Light Snow
6:15 PM 15.6 °F - 8.8 °F 74% 29.91 in 2.0 mi Calm Calm - N/A   Overcast
6:35 PM 13.5 °F 2.2 °F 9.5 °F 84% 29.91 in 1.8 mi East 8.1 mph - N/A   Overcast
6:55 PM 12.6 °F 3.4 °F 9.3 °F 87% 29.91 in 1.5 mi East 5.8 mph - N/A Snow Light Snow
7:10 PM 12.6 °F 4.8 °F 9.3 °F 87% 29.91 in 1.8 mi ESE 4.6 mph - N/A   Overcast
7:35 PM 12.2 °F 2.9 °F 9.1 °F 88% 29.90 in 5.0 mi ESE 5.8 mph - N/A Snow Light Snow
7:55 PM 12.2 °F 2.9 °F 8.6 °F 85% 29.91 in 10.0 mi East 5.8 mph - N/A   Overcast
8:15 PM 12.0 °F 4.1 °F 8.6 °F 86% 29.92 in 7.0 mi East 4.6 mph - N/A Snow Light Snow
8:35 PM 12.0 °F 4.1 °F 8.6 °F 86% 29.92 in 4.0 mi East 4.6 mph - N/A Snow Light Snow
8:55 PM 11.8 °F 3.9 °F 8.6 °F 87% 29.93 in 2.5 mi ENE 4.6 mph - N/A   Overcast
9:15 PM 11.7 °F 5.5 °F 8.6 °F 88% 29.92 in 3.0 mi East 3.5 mph - N/A Snow Light Snow
9:35 PM 11.5 °F 5.3 °F 8.6 °F 88% 29.92 in 2.5 mi East 3.5 mph - N/A Snow Light Snow
9:55 PM 11.3 °F 5.1 °F 8.6 °F 89% 29.92 in 2.5 mi East 3.5 mph - N/A Snow Light Snow
10:15 PM 11.3 °F - 8.4 °F 88% 29.92 in 2.5 mi Calm Calm - N/A Snow Light Snow
10:35 PM 11.3 °F - 8.4 °F 88% 29.92 in 2.5 mi Calm Calm - N/A Snow Light Snow
10:55 PM 11.1 °F - 8.2 °F 88% 29.92 in 5.0 mi Calm Calm - N/A Snow Light Snow
11:15 PM 11.1 °F - 8.2 °F 88% 29.92 in 7.0 mi Calm Calm - N/A   Overcast
11:35 PM 11.1 °F - 8.2 °F 88% 29.92 in 7.0 mi Calm Calm - N/A Snow Light Snow
11:50 PM 11.1 °F - 8.2 °F 88% 29.93 in 10.0 mi Calm Calm - N/A   Overcast